When you browse on this site, cookies collect data to enhance your experience and personalize the content and advertising you see.
Visit our Privacy Policy to learn more. By continuing to use the site, you agree to this use of cookies and data.
  • In Romania
  • List of Countries
  • For 7 days
  • Water Temperature
  • Weather Map
  • Weather Widgets
  • user-avatar
    Login

    Hourly Weather Molepolole

    Today, 15 September, Sunday

    Time Temperature Precipitation Wind Pressure Humidity
    00:00 +18°C° 0 mm 3 mps 665 mmHg 15%
    01:00 +17°C° 0 mm 2 mps 665 mmHg 15%
    02:00 +16°C° 0 mm 2 mps 665 mmHg 14%
    03:00 +15°C° 0 mm 2 mps 665 mmHg 19%
    04:00 +15°C° 0 mm 2 mps 665 mmHg 24%
    05:00 +14°C° 0 mm 2 mps 665 mmHg 29%
    06:00 +16°C° 0 mm 3 mps 666 mmHg 39%
    07:00 +17°C° 0 mm 4 mps 667 mmHg 49%
    08:00 +19°C° 0 mm 5 mps 668 mmHg 65%
    09:00 +22°C° 0 mm 5 mps 668 mmHg 53%
    10:00 +26°C° 0 mm 5 mps 669 mmHg 42%
    11:00 +29°C° 0 mm 6 mps 669 mmHg 30%
    12:00 +32°C° 0 mm 5 mps 669 mmHg 25%
    13:00 +33°C° 0 mm 4 mps 668 mmHg 20%
    14:00 +34°C° 0 mm 3 mps 668 mmHg 15%
    15:00 +34°C° 0 mm 3 mps 668 mmHg 14%
    16:00 +34°C° 0 mm 3 mps 667 mmHg 14%
    17:00 +34°C° 0 mm 2 mps 667 mmHg 13%
    18:00 +30°C° 0 mm 3 mps 667 mmHg 18%
    19:00 +27°C° 0 mm 3 mps 666 mmHg 23%
    20:00 +24°C° 0 mm 3 mps 666 mmHg 27%
    21:00 +22°C° 0 mm 3 mps 666 mmHg 30%
    22:00 +21°C° 0 mm 3 mps 666 mmHg 32%
    23:00 +20°C° 0 mm 3 mps 666 mmHg 34%

    Tomorrow, 16 September, Monday

    Time Temperature Precipitation Wind Pressure Humidity
    00:00 +19°C° 0 mm 3 mps 666 mmHg 39%
    01:00 +19°C° 0 mm 3 mps 666 mmHg 43%
    02:00 +18°C° 0 mm 2 mps 665 mmHg 47%
    03:00 +17°C° 0 mm 2 mps 665 mmHg 50%
    04:00 +16°C° 0 mm 2 mps 665 mmHg 53%
    05:00 +15°C° 0 mm 2 mps 665 mmHg 56%
    06:00 +17°C° 0 mm 3 mps 666 mmHg 54%
    07:00 +18°C° 0 mm 3 mps 667 mmHg 51%
    08:00 +20°C° 0 mm 4 mps 668 mmHg 48%
    09:00 +23°C° 0 mm 4 mps 668 mmHg 40%
    10:00 +28°C° 0 mm 5 mps 669 mmHg 31%
    11:00 +32°C° 0 mm 5 mps 670 mmHg 23%
    12:00 +33°C° 0 mm 4 mps 669 mmHg 19%
    13:00 +35°C° 0 mm 4 mps 669 mmHg 16%
    14:00 +36°C° 0 mm 4 mps 668 mmHg 12%
    15:00 +36°C° 0 mm 4 mps 668 mmHg 12%
    16:00 +35°C° 0 mm 4 mps 668 mmHg 12%
    17:00 +35°C° 0 mm 5 mps 667 mmHg 11%
    18:00 +32°C° 0 mm 4 mps 667 mmHg 15%
    19:00 +28°C° 0 mm 4 mps 667 mmHg 18%
    20:00 +25°C° 0 mm 3 mps 667 mmHg 21%
    21:00 +25°C° 0 mm 3 mps 667 mmHg 24%
    22:00 +24°C° 0 mm 3 mps 667 mmHg 26%
    23:00 +22°C° 0 mm 3 mps 667 mmHg 28%

    Day after tomorrow, 17 September, Tuesday

    Time Temperature Precipitation Wind Pressure Humidity
    00:00 +21°C° 0 mm 3 mps 667 mmHg 31%
    01:00 +20°C° 0 mm 3 mps 666 mmHg 35%
    02:00 +19°C° 0 mm 2 mps 666 mmHg 38%
    03:00 +18°C° 0 mm 2 mps 666 mmHg 41%
    04:00 +17°C° 0 mm 2 mps 666 mmHg 45%
    05:00 +16°C° 0 mm 2 mps 666 mmHg 48%
    06:00 +18°C° 0 mm 2 mps 667 mmHg 45%
    07:00 +20°C° 0 mm 3 mps 668 mmHg 42%
    08:00 +21°C° 0 mm 3 mps 668 mmHg 40%
    09:00 +25°C° 0 mm 3 mps 669 mmHg 34%
    10:00 +28°C° 0 mm 3 mps 669 mmHg 28%
    11:00 +32°C° 0 mm 4 mps 670 mmHg 22%
    12:00 +34°C° 0 mm 4 mps 669 mmHg 19%
    13:00 +35°C° 0 mm 4 mps 669 mmHg 15%
    14:00 +37°C° 0 mm 5 mps 668 mmHg 12%
    15:00 +36°C° 0 mm 5 mps 668 mmHg 12%
    16:00 +36°C° 0 mm 5 mps 668 mmHg 12%
    17:00 +35°C° 0 mm 5 mps 667 mmHg 12%
    18:00 +32°C° 0 mm 4 mps 667 mmHg 16%
    19:00 +28°C° 0 mm 3 mps 667 mmHg 20%
    20:00 +25°C° 0 mm 2 mps 666 mmHg 23%
    21:00 +25°C° 0 mm 3 mps 666 mmHg 25%
    22:00 +24°C° 0 mm 3 mps 667 mmHg 26%
    23:00 +24°C° 0 mm 3 mps 667 mmHg 28%

    18 September, Wednesday

    Time Temperature Precipitation Wind Pressure Humidity
    00:00 +21°C° 0 mm 2 mps 667 mmHg 30%
    01:00 +20°C° 0 mm 2 mps 666 mmHg 33%
    02:00 +19°C° 0 mm 2 mps 666 mmHg 36%
    03:00 +19°C° 0 mm 2 mps 666 mmHg 39%
    04:00 +18°C° 0 mm 2 mps 666 mmHg 42%
    05:00 +18°C° 0 mm 2 mps 666 mmHg 45%
    06:00 +19°C° 0 mm 3 mps 667 mmHg 42%
    07:00 +21°C° 0 mm 3 mps 668 mmHg 40%
    08:00 +23°C° 0 mm 4 mps 668 mmHg 37%
    09:00 +27°C° 0 mm 4 mps 669 mmHg 30%
    10:00 +30°C° 0 mm 5 mps 669 mmHg 23%
    11:00 +34°C° 0 mm 5 mps 670 mmHg 16%
    12:00 +35°C° 0 mm 5 mps 669 mmHg 14%
    13:00 +36°C° 0 mm 5 mps 669 mmHg 13%
    14:00 +37°C° 0 mm 5 mps 668 mmHg 12%
    15:00 +36°C° 0 mm 5 mps 668 mmHg 12%
    16:00 +36°C° 0 mm 5 mps 668 mmHg 12%
    17:00 +35°C° 0 mm 5 mps 667 mmHg 12%
    18:00 +33°C° 0 mm 4 mps 667 mmHg 14%
    19:00 +29°C° 0 mm 3 mps 667 mmHg 17%
    20:00 +26°C° 0 mm 2 mps 666 mmHg 20%
    21:00 +25°C° 0 mm 3 mps 666 mmHg 21%
    22:00 +24°C° 0 mm 3 mps 667 mmHg 22%
    23:00 +24°C° 0 mm 3 mps 667 mmHg 23%

    19 September, Thursday

    Time Temperature Precipitation Wind Pressure Humidity
    00:00 +21°C° 0 mm 3 mps 667 mmHg 24%
    01:00 +20°C° 0 mm 3 mps 666 mmHg 24%
    02:00 +19°C° 0 mm 3 mps 666 mmHg 24%
    03:00 +19°C° 0 mm 2 mps 666 mmHg 25%
    04:00 +18°C° 0 mm 2 mps 666 mmHg 27%
    05:00 +17°C° 0 mm 2 mps 666 mmHg 28%
    06:00 +19°C° 0 mm 3 mps 667 mmHg 25%
    07:00 +21°C° 0 mm 3 mps 668 mmHg 23%
    08:00 +22°C° 0 mm 3 mps 668 mmHg 21%
    09:00 +27°C° 0 mm 4 mps 669 mmHg 17%
    10:00 +30°C° 0 mm 5 mps 669 mmHg 13%
    11:00 +34°C° 0 mm 7 mps 670 mmHg 9%
    12:00 +35°C° 0 mm 7 mps 669 mmHg 8%
    13:00 +36°C° 0 mm 7 mps 668 mmHg 8%
    14:00 +38°C° 0 mm 8 mps 668 mmHg 7%
    15:00 +37°C° 0 mm 8 mps 667 mmHg 7%
    16:00 +37°C° 0 mm 8 mps 667 mmHg 7%
    17:00 +35°C° 0 mm 8 mps 666 mmHg 8%
    18:00 +32°C° 0 mm 7 mps 666 mmHg 9%
    19:00 +28°C° 0 mm 5 mps 666 mmHg 11%
    20:00 +26°C° 0 mm 4 mps 665 mmHg 12%
    21:00 +25°C° 0 mm 4 mps 666 mmHg 14%
    22:00 +23°C° 0 mm 4 mps 666 mmHg 16%
    23:00 +22°C° 0 mm 4 mps 666 mmHg 18%

    20 September, Friday

    Time Temperature Precipitation Wind Pressure Humidity
    00:00 +21°C° 0 mm 4 mps 666 mmHg 18%
    01:00 +20°C° 0 mm 4 mps 666 mmHg 19%
    02:00 +19°C° 0 mm 4 mps 665 mmHg 20%
    03:00 +18°C° 0 mm 4 mps 665 mmHg 23%
    04:00 +16°C° 0 mm 3 mps 665 mmHg 25%
    05:00 +14°C° 0 mm 3 mps 665 mmHg 27%
    06:00 +17°C° 0 mm 4 mps 666 mmHg 27%
    07:00 +19°C° 0 mm 5 mps 667 mmHg 26%
    08:00 +21°C° 0 mm 6 mps 667 mmHg 26%
    09:00 +23°C° 0 mm 7 mps 668 mmHg 22%
    10:00 +27°C° 0 mm 7 mps 668 mmHg 18%
    11:00 +30°C° 0 mm 7 mps 668 mmHg 14%
    12:00 +32°C° 0 mm 6 mps 668 mmHg 12%
    13:00 +34°C° 0 mm 6 mps 667 mmHg 10%
    14:00 +36°C° 0 mm 5 mps 666 mmHg 8%
    15:00 +35°C° 0 mm 5 mps 666 mmHg 7%
    16:00 +35°C° 0 mm 5 mps 665 mmHg 7%
    17:00 +35°C° 0 mm 5 mps 665 mmHg 7%
    18:00 +32°C° 0 mm 4 mps 665 mmHg 9%
    19:00 +28°C° 0 mm 4 mps 664 mmHg 11%
    20:00 +25°C° 0 mm 4 mps 664 mmHg 13%
    21:00 +23°C° 0 mm 4 mps 664 mmHg 13%
    22:00 +22°C° 0 mm 4 mps 664 mmHg 14%
    23:00 +21°C° 0 mm 4 mps 664 mmHg 15%
    Show more